Weather in Sukhonogovo

Russia / Kostroma Oblast     57°34′50″N   41°02′43″E
temp.,
°C
wind,
m/s
gust,
m/s
humid.,
%
clouds,
%
prec.,
mm/h
press.,
hPa
HPBL,
m
10 may, mon
mon1000:00+4nnw41088100 0.0 1018356
03:00+2nnw41186100 0.0 1021262
06:00+3nnw4118997 0.0 1023423
09:00+8n6106998 0.0 1024901
12:00+12n57525 0.0 10261300
15:00+13nne45475 0.0 10261455
18:00+13nne35593 0.0 1027324
21:00+7nne33735 0.0 102838
11 may, tue
tue1100:00+5ene22805 0.0 102925
03:00+4ene22855 0.0 103027
06:00+6ne258526 0.0 1030138
09:00+12ene466237 0.0 1030608
12:00+16ene45465 0.0 1030900
15:00+18e44452 0.0 1029977
18:00+17ene35635 0.0 1028211
21:00+12ene34750 0.0 102949
12 may, wed
wed1200:00+10ese35840 0.0 102968
03:00+10e34930 0.0 102949
06:00+12ene36910 0.0 1029165
09:00+17e477480 0.0 1028461
12:00+21e68615 0.0 10271030
15:00+23ese6958100 0.0 10251894
18:00+21ese4106648 0.1 1024446
21:00+15se378034 0.1 1025106
13 may, thu
thu1300:00+15ese387879 0.0 1025179
03:00+15e3879100 0.0 1024162
06:00+15ese4118333 0.0 1024328
09:00+18ese6116813 0.0 1023545
12:00+21se7105296 0.0 10221380
15:00+17sse41073100 0.1 1021301
18:00+16se388643 0.1 1020343
21:00+15se499267 0.6 1020497
14 may, fri
fri1400:00+14se259666 0.0 1020211
03:00+13s229994 0.0 102061
06:00+14sse1190100 0.0 102086
09:00+16se2384100 0.0 1020520
12:00+19se2369100 0.0 1019959
15:00+22se2359100 0.1 10181215
18:00+21ene2470100 0.0 1016136
21:00+16ese368985 0.0 101590